FW1418 Weather Reports


Display with metric or nautical units.
time (UTC)temp
F
wind
direction
speed
MPH
gust
MPH
rain 1hr
in
rain 24hr
in
rain mn
in
humidity
%
barometer
mb
20260505090017 42 302 1.0 4.0 0.00 0.04 0.00 71 1002.3
20260505084526 42 333 1.0 4.0 0.00 0.04 0.00 72 1002.3
20260505083014 43 333 0.0 4.0 0.00 0.04 0.00 75 1002.1
20260505081508 44 333 0.0 2.0 0.00 0.04 0.00 70 1001.9
20260505080005 45 333 0.0 6.0 0.00 0.04 0.00 67 1001.7
20260505074501 46 332 2.0 8.0 0.00 0.04 0.00 65 1001.7
20260505073104 46 5 2.0 8.0 0.00 0.04 0.00 64 1001.7
20260505071557 47 293 4.0 10.0 0.00 0.04 0.00 64 1001.5
20260505070056 46 324 2.0 5.0 0.00 0.04 0.00 69 1001.4
20260505064552 46 23 1.0 3.0 0.00 0.04 0.00 68 1001.4
20260505063110 47 23 2.0 5.0 0.00 0.04 0.00 69 1001.4
20260505061548 47 333 2.0 6.0 0.00 0.04 0.00 68 1001.4
20260505060046 47 24 1.0 6.0 0.00 0.04 0.00 67 1001.1
20260505054547 47 36 1.0 6.0 0.00 0.04 0.00 68 1001.2
20260505053053 48 64 3.0 10.0 0.00 0.04 0.00 69 1000.9
20260505051541 48 58 2.0 9.0 0.00 0.04 0.00 70 1000.7
20260505041548 48 24 4.0 9.0 0.00 0.04 0.00 75 999.1
20260505040038 48 53 4.0 11.0 0.00 0.04 0.04 77 999.2
20260505034531 48 49 5.0 12.0 0.00 0.04 0.04 78 999.0
20260505033028 48 41 3.0 9.0 0.00 0.04 0.04 83 998.4
20260505031538 48 102 4.0 12.0 0.00 0.04 0.04 83 998.3
20260505030027 48 360 6.0 16.0 0.00 0.04 0.04 79 998.1
20260505024527 49 327 7.0 17.0 0.00 0.04 0.04 76 997.6
20260505023026 49 59 5.0 13.0 0.00 0.04 0.04 79 997.4
20260505021526 50 55 6.0 12.0 0.00 0.04 0.04 79 997.2
20260505020025 50 77 3.0 11.0 0.00 0.04 0.04 79 996.9
20260505014533 50 274 5.0 14.0 0.00 0.04 0.04 77 996.6
20260505013024 51 315 2.0 10.0 0.00 0.04 0.04 77 996.2
20260505011524 56 213 3.0 4.0 0.00 0.04 0.04 75 995.4
20260505010026 57 209 0.0 3.0 0.01 0.04 0.04 75 994.8
20260505004527 58 208 1.0 4.0 0.01 0.04 0.04 73 994.9
20260505003023 59 208 1.0 6.0 0.01 0.04 0.04 65 994.8
20260505001522 60 254 0.0 8.0 0.01 0.04 0.04 69 995.2
20260505000025 62 212 2.0 14.0 0.00 0.10 0.03 68 995.0
20260504234522 64 223 2.0 5.0 0.00 0.10 0.03 61 995.2
20260504233024 65 173 7.0 15.0 0.00 0.10 0.03 60 994.8
20260504231522 65 192 4.0 17.0 0.00 0.10 0.03 60 993.9
20260504230020 65 256 5.0 17.0 0.02 0.10 0.03 58 993.7
20260504224521 67 172 9.0 17.0 0.02 0.10 0.03 56 993.6
20260504223032 65 180 7.0 18.0 0.02 0.10 0.03 60 993.7
20260504221518 67 200 5.0 24.0 0.02 0.10 0.03 59 993.8
20260504220018 70 193 4.0 12.0 0.00 0.08 0.01 42 993.0
20260504214516 71 167 8.0 21.0 0.00 0.08 0.01 42 993.0
20260504213022 71 153 10.0 30.0 0.00 0.08 0.01 43 993.4
20260504211518 72 163 11.0 24.0 0.00 0.08 0.01 39 993.5
20260504210013 73 208 9.0 30.0 0.00 0.08 0.01 38 993.5
20260504204532 74 199 10.0 23.0 0.00 0.08 0.01 35 993.6
20260504203020 74 229 11.0 25.0 0.00 0.08 0.01 35 993.5
20260504201513 75 166 9.0 26.0 0.00 0.08 0.01 35 993.4
20260504200011 77 169 12.0 29.0 0.00 0.08 0.01 33 993.3
20260504194509 76 148 12.0 24.0 0.00 0.08 0.01 34 993.4
20260504193007 76 217 7.0 27.0 0.00 0.08 0.01 34 993.5
20260504191505 75 173 13.0 43.0 0.00 0.08 0.01 34 993.7
20260504190003 74 121 16.0 35.0 0.00 0.08 0.01 33 994.0
20260504184502 75 200 14.0 37.0 0.00 0.08 0.01 33 994.0
20260504183000 75 170 11.0 24.0 0.00 0.08 0.01 33 994.1
20260504181604 74 167 14.0 29.0 0.00 0.08 0.01 33 994.0
20260504180059 75 201 14.0 27.0 0.00 0.08 0.01 32 993.8
20260504174614 74 187 10.0 31.0 0.00 0.08 0.01 32 994.2
20260504173055 74 132 15.0 34.0 0.00 0.08 0.01 32 994.0
20260504171554 74 258 16.0 35.0 0.00 0.08 0.01 32 994.6